Regional Weather Roundup
Issued by NWS

Home | Current Version | Previous Version | Graphics & Text | Print | Product List | Glossary On
Versions: 1 2 3 4 5 6 7 8 9 10 11 12 13 14 15 16 17 18 19 20 21 22 23 24 25 26 27 28 29 30 31 32 33 34 35 36 37 38 39 40 41 42 43 44 45 46 47 48 49 50
000
ASUS43 KTOP 231308
RWRKS

WEATHER ROUNDUP FOR KANSAS
NATIONAL WEATHER SERVICE GOODLAND KS
800 AM CDT THU OCT 23 2014

NOTE:  "FAIR" INDICATES FEW OR NO CLOUDS BELOW 12,000 FEET WITH NO
SIGNIFICANT WEATHER AND/OR OBSTRUCTIONS TO VISIBILITY.

KSZ001>006-013>018-027>032-041>047-231400-
NORTHWEST KANSAS

CITY           SKY/WX    TMP DP  RH WIND       PRES   REMARKS
GOODLAND       CLEAR     43  41  93 W5        30.13R
HAYS           CLOUDY    55  52  88 NE5       30.08S
HILL CITY      FOG       51  51 100 CALM      30.08F VSB 1/4
RUSSELL        FOG       57  56  96 CALM      30.07S VSB 1/2
$$

KSZ061>065-074>080-084>089-231400-
SOUTHWEST KANSAS

CITY           SKY/WX    TMP DP  RH WIND       PRES   REMARKS
DODGE CITY     CLOUDY    58  56  93 SE3       30.08S FOG
ELKHART          N/A     51  47  86 W6          N/A
GARDEN CITY    FOG       54  54 100 CALM      30.07S VSB 1/4
GREAT BEND     CLOUDY    61  55  82 S6        30.08S
LIBERAL        CLOUDY    52  48  87 SW5       30.09R VSB 1/4
PRATT          CLOUDY    59  55  88 S7        30.09S
$$

KSZ066>073-081>083-090>101-231400-
SOUTHEAST KANSAS

CITY           SKY/WX    TMP DP  RH WIND       PRES   REMARKS
CHANUTE        CLOUDY    59  58  96 S10       30.11S
COFFEYVILLE    LGT RAIN  59  58  96 S6        30.13R
HUTCHINSON     CLOUDY    61  57  87 S5        30.08S
MEDICINE LODGE   N/A     60  57  89 S6        30.08S
NEWTON         CLOUDY    61  54  77 SW7       30.11R
PARSONS        CLOUDY    59  59 100 S7        30.14R
WICHITA INTL   CLOUDY    62  58  86 S8        30.08R
WICHITA JABRA  CLOUDY    61  59  93 S9        30.09R
WICHITA MCCONL CLOUDY    61  61 100 S9        30.09S
WINFIELD       MOCLDY    61  59  93 S8        30.11R
$$

KSZ007>012-019>026-033>040-048>060-102>105-231400-
NORTHEAST KANSAS

CITY           SKY/WX    TMP DP  RH WIND       PRES   REMARKS
CONCORDIA      CLOUDY    61  60  97 SW5       30.06S
EMPORIA        CLOUDY    61  61 100 S9        30.09S FOG
LAWRENCE       LGT RAIN  60  57  89 SW9G20    30.07F
MANHATTAN      LGT RAIN  61  60  97 S3        30.07S FOG
MARYSVILLE     CLOUDY    61  59  94 SW7       30.06S
OLATHE IND     LGT RAIN  58  57  97 S13       30.09F FOG
OLATHE EXE     LGT RAIN  58  58 100 S10       30.07F
SALINA         CLOUDY    62  58  86 CALM      30.07S
TOPEKA BILLARD CLOUDY    62  60  93 S9        30.07F
TOPEKA FORBES  CLOUDY    60  58  92 S8        30.07F
$$



USA.gov is the U.S. government's official web portal to all federal, state and local government web resources and services.